Tracking 35274 objects as of 11-Sep-2026
HD Live streaming from Space Station
objects crossing your sky now

FENGYUN 1C DEB

Track FENGYUN 1C DEB now!
10-day predictions


NORAD ID: 38518
Int'l Code: 1999-025ETD
Launch date: May 10, 1999
Source: People's Republic of China (PRC)
Launch site: Taiyaun Space Center, China (TSC)

Note: This is SATELLITE DEBRIS
Your satellite tracking list
Your tracking list is empty




NASA's NSSDC Master Catalog

Two Line Element Set (TLE):
1 38518U 99025ETD 22256.91921616  .00004380  00000-0  13155-2 0  9994
2 38518  99.2078 291.8337 0030128  56.2889 304.1164 14.42982615662349
Source of the keplerian elements: AFSPC